Weather History for K14Y - September, 2013

Change the Weather History Date:

Monday, September 2, 2013

  Actual Average (KAXN) Record (KAXN)
Temperature  
Mean Temperature 57 °F -  
Max Temperature 68 °F 75 °F 93 °F (1983)
Min Temperature 46 °F 54 °F 37 °F (1974)
Degree Days  
Heating Degree Days 8    
Growing Degree Days 7 (Base 50)    
Moisture  
Dew Point 48 °F    
Average Humidity 76    
Maximum Humidity 100    
Minimum Humidity 46    
Precipitation  
Precipitation 0.00 in - - ()
Sea Level Pressure  
Sea Level Pressure 30.08 in    
Wind  
Wind Speed 3 mph (NNW)    
Max Wind Speed 8 mph    
Max Gust Speed -    
Visibility 10 miles    
Events      
Averages and records for this station are not official NWS values.
T = Trace of Precipitation, MM = Missing Value Source: NWS Daily Summary

Daily Weather History Graph

Daily Weather History Graph

Search for Another Location

Airport or City:

Trip Planner

Search our weather history database for the weather conditions in past years. The results will help you decide how hot, cold, wet, or windy it might be!

Date:

Astronomy

Sep. 02, 2013 Rise Set
Actual Time 6:41 AM CDT 7:55 PM CDT
Civil Twilight 6:11 AM CDT 8:25 PM CDT
Nautical Twilight 5:34 AM CDT 9:02 PM CDT
Astronomical Twilight 4:54 AM CDT 9:41 PM CDT
Moon 3:54 AM CDT (9/2) 6:12 PM CDT (9/2)
Length of Visible Light 14h 14m
Length of Day
13h 13m
Waning Crescent, 8% of the Moon is Illuminated
Sep 2
Waning Crescent
Sep 5
New
Sep 12
First Quarter
Sep 19
Full
Sep 26
Last Quarter

Hourly Weather History & Observations

Time (CDT) Temp. Windchill Dew Point Humidity Pressure Visibility Wind Dir Wind Speed Gust Speed Precip Events Conditions
12:19 AM 50.0 °F - 46.4 °F 87% 30.05 in 10.0 mi NNW 3.5 mph - N/A   Clear
12:38 AM 50.0 °F - 46.4 °F 87% 30.05 in 10.0 mi NW 3.5 mph - N/A   Clear
12:58 AM 50.0 °F - 46.4 °F 87% 30.05 in 10.0 mi WNW 4.6 mph - N/A   Clear
1:18 AM 50.0 °F - 44.6 °F 82% 30.05 in 10.0 mi WNW 4.6 mph - N/A   Clear
1:39 AM 48.2 °F - 46.4 °F 93% 30.05 in 10.0 mi NW 4.6 mph - N/A   Clear
1:59 AM 48.2 °F - 44.6 °F 87% 30.05 in 10.0 mi NNW 3.5 mph - N/A   Clear
2:18 AM 46.4 °F - 44.6 °F 93% 30.05 in 10.0 mi Calm Calm - N/A   Clear
2:38 AM 46.4 °F 44.3 °F 44.6 °F 93% 30.05 in 10.0 mi NW 4.6 mph - N/A   Clear
2:59 AM 46.4 °F 45.2 °F 44.6 °F 93% 30.06 in 10.0 mi NW 3.5 mph - N/A   Scattered Clouds
3:19 AM 46.4 °F - 44.6 °F 93% 30.06 in 10.0 mi Calm Calm - N/A   Mostly Cloudy
3:38 AM 46.4 °F - 44.6 °F 93% 30.06 in 10.0 mi Calm Calm - N/A   Overcast
3:58 AM 48.2 °F - 46.4 °F 93% 30.06 in 10.0 mi Calm Calm - N/A   Overcast
4:18 AM 50.0 °F - 46.4 °F 87% 30.07 in 10.0 mi Calm Calm - N/A   Overcast
4:38 AM 50.0 °F - 46.4 °F 87% 30.06 in 10.0 mi Calm Calm - N/A   Overcast
4:58 AM 50.0 °F - 46.4 °F 87% 30.07 in 10.0 mi Calm Calm - N/A   Overcast
5:19 AM 50.0 °F - 46.4 °F 87% 30.07 in 10.0 mi Calm Calm - N/A   Overcast
5:38 AM 50.0 °F - 46.4 °F 87% 30.07 in 10.0 mi Calm Calm - N/A   Overcast
5:58 AM 50.0 °F - 48.2 °F 94% 30.08 in 10.0 mi NW 3.5 mph - N/A   Overcast
6:18 AM 51.8 °F - 50.0 °F 94% 30.09 in 7.0 mi NW 3.5 mph - N/A   Overcast
6:39 AM 51.8 °F - 50.0 °F 94% 30.10 in 3.0 mi NNW 3.5 mph - N/A   Drizzle
6:59 AM 51.8 °F - 50.0 °F 94% 30.10 in 10.0 mi Calm Calm - N/A   Overcast
7:19 AM 51.8 °F - 50.0 °F 94% 30.11 in 10.0 mi Calm Calm - N/A   Overcast
7:38 AM 51.8 °F - 50.0 °F 94% 30.11 in 10.0 mi Calm Calm - N/A   Overcast
7:58 AM 51.8 °F - 50.0 °F 94% 30.11 in 10.0 mi NW 4.6 mph - N/A   Overcast
8:18 AM 51.8 °F - 50.0 °F 94% 30.12 in 10.0 mi NW 3.5 mph - N/A   Overcast
8:39 AM 53.6 °F - 50.0 °F 88% 30.11 in 10.0 mi NNW 4.6 mph - N/A   Overcast
8:58 AM 53.6 °F - 50.0 °F 88% 30.12 in 10.0 mi NNW 4.6 mph - N/A   Overcast
9:19 AM 53.6 °F - 50.0 °F 88% 30.13 in 10.0 mi NNW 8.1 mph - N/A   Overcast
9:39 AM 53.6 °F - 48.2 °F 82% 30.14 in 10.0 mi NNW 5.8 mph - N/A   Overcast
9:59 AM 53.6 °F - 48.2 °F 82% 30.13 in 10.0 mi NNW 3.5 mph - N/A   Overcast
10:19 AM 53.6 °F - 48.2 °F 82% 30.13 in 10.0 mi NW 5.8 mph - N/A   Overcast
10:39 AM 53.6 °F - 48.2 °F 82% 30.14 in 10.0 mi NW 4.6 mph - N/A   Overcast
10:58 AM 53.6 °F - 48.2 °F 82% 30.14 in 10.0 mi NNW 4.6 mph - N/A   Overcast
11:18 AM 53.6 °F - 46.4 °F 77% 30.14 in 10.0 mi NNW 4.6 mph - N/A   Overcast
11:38 AM 55.4 °F - 46.4 °F 72% 30.14 in 10.0 mi NW 6.9 mph - N/A   Overcast
11:59 AM 55.4 °F - 46.4 °F 72% 30.13 in 10.0 mi NNE 8.1 mph - N/A   Overcast
12:19 PM 57.2 °F - 46.4 °F 67% 30.13 in 10.0 mi Calm Calm - N/A   Overcast
12:38 PM 60.8 °F - 48.2 °F 63% 30.12 in 10.0 mi NNW 6.9 mph - N/A   Overcast
12:58 PM 60.8 °F - 46.4 °F 59% 30.11 in 10.0 mi Calm Calm - N/A   Overcast
1:19 PM 62.6 °F - 48.2 °F 59% 30.11 in 10.0 mi North 4.6 mph - N/A   Scattered Clouds
1:39 PM 62.6 °F - 46.4 °F 55% 30.11 in 10.0 mi North 5.8 mph - N/A   Scattered Clouds
1:59 PM 62.6 °F - 46.4 °F 55% 30.10 in 10.0 mi NNE 3.5 mph - N/A   Clear
2:19 PM 64.4 °F - 46.4 °F 52% 30.10 in 10.0 mi NNE 4.6 mph - N/A   Clear
2:39 PM 64.4 °F - 46.4 °F 52% 30.09 in 10.0 mi NE 5.8 mph - N/A   Clear
2:59 PM 64.4 °F - 46.4 °F 52% 30.09 in 10.0 mi North 5.8 mph - N/A   Clear
3:18 PM 64.4 °F - 46.4 °F 52% 30.08 in 10.0 mi NE 3.5 mph - N/A   Clear
3:39 PM 68.0 °F - 46.4 °F 46% 30.08 in 10.0 mi Calm Calm - N/A   Clear
3:59 PM 68.0 °F - 46.4 °F 46% 30.07 in 10.0 mi Calm Calm - N/A   Clear
4:19 PM 68.0 °F - 46.4 °F 46% 30.07 in 10.0 mi Calm Calm - N/A   Clear
4:39 PM 68.0 °F - 46.4 °F 46% 30.06 in 10.0 mi Calm Calm - N/A   Clear
4:59 PM 68.0 °F - 48.2 °F 49% 30.06 in 10.0 mi NNE 3.5 mph - N/A   Clear
5:18 PM 68.0 °F - 46.4 °F 46% 30.06 in 10.0 mi SW 4.6 mph - N/A   Clear
5:38 PM 68.0 °F - 46.4 °F 46% 30.06 in 10.0 mi Calm Calm - N/A   Clear
5:59 PM 68.0 °F - 46.4 °F 46% 30.05 in 10.0 mi West 3.5 mph - N/A   Clear
6:19 PM 68.0 °F - 46.4 °F 46% 30.05 in 10.0 mi Calm Calm - N/A   Clear
6:39 PM 68.0 °F - 46.4 °F 46% 30.05 in 10.0 mi Calm Calm - N/A   Clear
6:59 PM 68.0 °F - 46.4 °F 46% 30.05 in 10.0 mi Calm Calm - N/A   Clear
7:18 PM 68.0 °F - 46.4 °F 46% 30.05 in 10.0 mi Calm Calm - N/A   Clear
7:39 PM 64.4 °F - 48.2 °F 56% 30.05 in 10.0 mi Calm Calm - N/A   Clear
7:59 PM 62.6 °F - 48.2 °F 59% 30.05 in 10.0 mi Calm Calm - N/A   Clear
8:19 PM 59.0 °F - 53.6 °F 82% 30.05 in 10.0 mi Calm Calm - N/A   Clear
8:39 PM 57.2 °F - 50.0 °F 77% 30.05 in 10.0 mi Calm Calm - N/A   Clear
8:59 PM 53.6 °F - 51.8 °F 94% 30.05 in 10.0 mi Calm Calm - N/A   Clear
9:19 PM 53.6 °F - 51.8 °F 94% 30.06 in 10.0 mi Calm Calm - N/A   Clear
9:39 PM 53.6 °F - 50.0 °F 88% 30.06 in 10.0 mi Calm Calm - N/A   Clear
9:58 PM 51.8 °F - 48.2 °F 88% 30.06 in 10.0 mi Calm Calm - N/A   Clear
10:19 PM 51.8 °F - 50.0 °F 94% 30.06 in 10.0 mi Calm Calm - N/A   Clear
10:39 PM 51.8 °F - 50.0 °F 94% 30.06 in 10.0 mi Calm Calm - N/A   Clear
10:59 PM 50.0 °F - 50.0 °F 100% 30.06 in 10.0 mi Calm Calm - N/A   Clear
11:19 PM 50.0 °F - 50.0 °F 100% 30.06 in 10.0 mi Calm Calm - N/A   Clear
11:39 PM 50.0 °F - 48.2 °F 94% 30.06 in 10.0 mi Calm Calm - N/A   Clear
11:58 PM 48.2 °F - 46.4 °F 93% 30.06 in 10.0 mi Calm Calm - N/A   Clear